Flag for Canada Weather past 2 weeks in Regina, Saskatchewan, Canada

Now
46 °F

Passing clouds.


Feels Like: 42 °F
Forecast: 38 / 53 °F
Wind: 9 mph from West

Location: Regina Weather Station

Current Time: Oct 22, 2014 at 9:45:16 AM

Latest Report: Oct 22, 2014 at 9:00 AM


Visibility: 15 mi

Pressure: 29.70 "Hg

Humidity: 93%

Dew point: 45 °F

Location of ReginaLocation

Historic Weather in Regina — Graph

°F

Regina temperature yesterday

Maximum temperature yesterday: 72 °F (at 3:00 PM)
Minimum temperature yesterday: 41 °F (at 7:00 AM)
Average temperature yesterday: 53 °F

Past Weeks' High & Low Weather Summary

 TemperatureHumidityPressure
High75 °F (Oct 20, 3:00 PM)100% (Oct 9, 2:00 AM)30.35 "Hg (Oct 9, 2:00 AM)
Low25 °F (Oct 9, 2:00 AM)30% (Oct 10, 4:00 PM)29.53 "Hg (Oct 16, 12:00 AM)
Average47 °F71%29.93 "Hg
* Reported Oct 7 8:00 AM — Oct 22 8:00 AM, Regina, Weather by CustomWeather, © 2014

Note: Actual official high and low records may vary slightly from our data, if they occured in-between our weather recording intervals... More about our weather records

Advertising

Regina weather history for previous 24 hours

 ConditionsComfort  
Time TempWeatherWind HumidityBarometerVisibility
8:00 AM
Oct 22
43 °FPassing clouds.9 mph100%29.71 "Hg15 mi
7:00 AM46 °FPassing clouds.12 mph93%29.68 "Hg15 mi
6:00 AM48 °FSprinkles. Overcast.12 mph87%29.65 "Hg15 mi
5:00 AM48 °FSprinkles. Overcast.7 mph82%29.69 "Hg15 mi
4:53 AM48 °FSprinkles. Overcast.8 mph82%29.69 "Hg15 mi
4:00 AM48 °FOvercast.8 mph82%29.63 "Hg15 mi
3:00 AM50 °FPassing clouds.6 mph76%29.61 "Hg15 mi
2:00 AM50 °FPassing clouds.6 mph76%29.60 "Hg15 mi
1:00 AM50 °FPassing clouds.10 mph76%29.59 "Hg15 mi
12:00 AM46 °FPassing clouds.6 mph87%29.61 "Hg15 mi
11:00 PM
Oct 21
48 °FPassing clouds.7 mph82%29.60 "Hg15 mi
10:00 PM52 °FPassing clouds.9 mph72%29.59 "Hg15 mi
9:00 PM54 °FPassing clouds.13 mph72%29.61 "Hg15 mi
8:00 PM55 °FPartly cloudy.14 mph67%29.61 "Hg15 mi
7:00 PM59 °FPartly cloudy.14 mph59%29.61 "Hg15 mi
6:00 PM61 °FMostly cloudy.10 mph59%29.60 "Hg15 mi
5:00 PM64 °FPartly sunny.12 mph52%29.58 "Hg15 mi
4:00 PM70 °FScattered clouds.13 mph43%29.58 "Hg15 mi
3:00 PM72 °FPassing clouds.15 mph41%29.58 "Hg15 mi
2:00 PM70 °FPassing clouds.16 mph43%29.60 "Hg15 mi
1:00 PM66 °FPassing clouds.14 mph49%29.63 "Hg15 mi
12:00 PM61 °FPassing clouds.16 mph55%29.67 "Hg15 mi
11:00 AM55 °FPassing clouds.17 mph67%29.69 "Hg15 mi
10:00 AM50 °FSunny.14 mph76%29.71 "Hg15 mi
9:00 AM45 °FSunny.13 mph87%29.73 "Hg15 mi
Weather by CustomWeather, © 2014

See weather overviewHow to use our weather pages